Time,TemperatureF,DewpointF,PressureIn,WindDirection,WindDirectionDegrees,WindSpeedMPH,WindSpeedGustMPH,Humidity,HourlyPrecipIn,Conditions,Clouds,dailyrainin,SoftwareType,DateUTC
2013-03-30 00:00:00,27.9,22.2,30.10,South,183,0.0,0.0,79,0.00,,CLR,0.04,VWS V14.01,2013-03-30 04:00:00,
2013-03-30 00:05:00,27.7,22.0,30.10,South,184,0.0,0.0,79,0.00,,CLR,0.00,VWS V14.01,2013-03-30 04:05:00,
2013-03-30 00:10:00,27.5,21.9,30.10,South,184,0.0,0.0,79,0.00,,CLR,0.00,VWS V14.01,2013-03-30 04:10:00,
2013-03-30 00:15:00,27.5,21.9,30.10,South,184,0.0,0.0,79,0.00,,CLR,0.00,VWS V14.01,2013-03-30 04:15:00,
2013-03-30 00:20:00,27.3,21.7,30.10,South,184,0.0,0.0,79,0.00,,CLR,0.00,VWS V14.01,2013-03-30 04:20:00,
2013-03-30 00:25:00,27.3,21.7,30.10,South,184,0.0,0.0,79,0.00,,CLR,0.00,VWS V14.01,2013-03-30 04:25:00,
2013-03-30 00:30:00,27.1,21.8,30.10,South,184,0.0,0.0,80,0.00,,CLR,0.00,VWS V14.01,2013-03-30 04:30:00,
2013-03-30 00:35:00,27.0,21.6,30.10,South,184,0.0,0.0,80,0.00,,CLR,0.00,VWS V14.01,2013-03-30 04:35:00,
2013-03-30 00:40:00,27.0,21.6,30.10,South,184,0.0,0.0,80,0.00,,CLR,0.00,VWS V14.01,2013-03-30 04:40:00,
2013-03-30 00:45:00,27.0,21.6,30.10,South,184,0.0,0.0,80,0.00,,CLR,0.00,VWS V14.01,2013-03-30 04:45:00,
2013-03-30 00:50:00,26.6,21.3,30.10,South,184,0.0,0.0,80,0.00,,CLR,0.00,VWS V14.01,2013-03-30 04:50:00,
2013-03-30 00:55:00,26.4,21.4,30.10,South,184,0.0,0.0,81,0.00,,CLR,0.00,VWS V14.01,2013-03-30 04:55:00,
2013-03-30 01:00:00,26.4,21.4,30.10,South,184,0.0,0.0,81,0.00,,CLR,0.00,VWS V14.01,2013-03-30 05:00:00,
2013-03-30 01:05:00,26.4,21.4,30.10,South,184,0.0,0.0,81,0.00,,CLR,0.00,VWS V14.01,2013-03-30 05:05:00,
2013-03-30 01:10:00,26.2,21.2,30.10,South,184,0.0,0.0,81,0.00,,CLR,0.00,VWS V14.01,2013-03-30 05:10:00,
2013-03-30 01:15:00,26.1,21.0,30.10,South,183,0.0,0.0,81,0.00,,CLR,0.00,VWS V14.01,2013-03-30 05:15:00,
2013-03-30 01:20:00,26.1,21.0,30.10,South,184,0.0,0.0,81,0.00,,CLR,0.00,VWS V14.01,2013-03-30 05:20:00,
2013-03-30 01:25:00,25.9,20.9,30.10,South,184,0.0,0.0,81,0.00,,CLR,0.00,VWS V14.01,2013-03-30 05:25:00,
2013-03-30 01:31:00,25.7,20.7,30.10,South,184,0.0,0.0,81,0.00,,CLR,0.00,VWS V14.01,2013-03-30 05:31:00,
2013-03-30 01:36:00,25.7,21.0,30.10,South,184,0.0,0.0,82,0.00,,CLR,0.00,VWS V14.01,2013-03-30 05:36:00,
2013-03-30 01:41:00,25.5,20.8,30.10,South,184,0.0,0.0,82,0.00,,,0.00,VWS V14.01,2013-03-30 05:41:00,
2013-03-30 01:46:00,25.3,20.6,30.10,South,184,0.0,0.0,82,0.00,,,0.00,VWS V14.01,2013-03-30 05:46:00,
2013-03-30 01:51:00,25.3,20.6,30.10,South,184,0.0,0.0,82,0.00,,,0.00,VWS V14.01,2013-03-30 05:51:00,
2013-03-30 01:56:00,25.3,20.6,30.10,South,184,0.0,0.0,82,0.00,,,0.00,VWS V14.01,2013-03-30 05:56:00,
2013-03-30 02:01:00,25.2,20.5,30.10,South,185,0.0,0.0,82,0.00,,,0.00,VWS V14.01,2013-03-30 06:01:00,
2013-03-30 02:06:00,25.2,20.5,30.10,South,186,0.0,0.0,82,0.00,,,0.00,VWS V14.01,2013-03-30 06:06:00,
2013-03-30 02:11:00,25.0,20.3,30.10,South,186,0.0,0.0,82,0.00,,,0.00,VWS V14.01,2013-03-30 06:11:00,
2013-03-30 02:16:00,25.0,20.3,30.10,South,186,0.0,0.0,82,0.00,,,0.00,VWS V14.01,2013-03-30 06:16:00,
2013-03-30 02:21:00,24.8,20.4,30.10,South,186,0.0,0.0,83,0.00,,,0.00,VWS V14.01,2013-03-30 06:21:00,
2013-03-30 02:26:00,24.8,20.4,30.10,South,186,0.0,0.0,83,0.00,,,0.00,VWS V14.01,2013-03-30 06:26:00,
2013-03-30 02:31:00,24.6,20.2,30.10,South,186,0.0,0.0,83,0.00,,,0.00,VWS V14.01,2013-03-30 06:31:00,
2013-03-30 02:36:00,24.6,20.2,30.10,South,186,0.0,0.0,83,0.00,,,0.00,VWS V14.01,2013-03-30 06:36:00,
2013-03-30 02:41:00,24.4,20.0,30.10,South,186,0.0,0.0,83,0.00,,,0.00,VWS V14.01,2013-03-30 06:41:00,
2013-03-30 02:46:00,24.4,20.0,30.10,South,186,0.0,0.0,83,0.00,,,0.00,VWS V14.01,2013-03-30 06:46:00,
2013-03-30 02:51:00,24.4,20.0,30.10,South,186,0.0,0.0,83,0.00,,,0.00,VWS V14.01,2013-03-30 06:51:00,
2013-03-30 02:56:00,24.3,20.1,30.10,South,186,0.0,0.0,84,0.00,,,0.00,VWS V14.01,2013-03-30 06:56:00,
2013-03-30 03:01:00,24.1,20.0,30.10,South,186,0.0,0.0,84,0.00,,,0.00,VWS V14.01,2013-03-30 07:01:00,
2013-03-30 03:06:00,24.1,20.0,30.10,South,186,0.0,0.0,84,0.00,,,0.00,VWS V14.01,2013-03-30 07:06:00,
2013-03-30 03:11:00,23.9,19.8,30.10,South,186,0.0,0.0,84,0.00,,,0.00,VWS V14.01,2013-03-30 07:11:00,
2013-03-30 03:16:00,23.7,19.6,30.10,South,186,0.0,0.0,84,0.00,,,0.00,VWS V14.01,2013-03-30 07:16:00,
2013-03-30 03:21:00,23.7,19.6,30.10,South,186,0.0,0.0,84,0.00,,,0.00,VWS V14.01,2013-03-30 07:21:00,
2013-03-30 03:26:00,23.5,19.4,30.10,South,186,0.0,0.0,84,0.00,,,0.00,VWS V14.01,2013-03-30 07:26:00,
2013-03-30 03:31:00,23.5,19.4,30.10,South,186,0.0,0.0,84,0.00,,,0.00,VWS V14.01,2013-03-30 07:31:00,
2013-03-30 03:36:00,23.5,19.7,30.10,South,186,0.0,0.0,85,0.00,,,0.00,VWS V14.01,2013-03-30 07:36:00,
2013-03-30 03:41:00,23.4,19.5,30.10,South,186,0.0,0.0,85,0.00,,,0.00,VWS V14.01,2013-03-30 07:41:00,
2013-03-30 03:47:00,23.4,19.5,30.10,South,186,0.0,0.0,85,0.00,,,0.00,VWS V14.01,2013-03-30 07:47:00,
2013-03-30 03:52:00,23.4,19.5,30.10,South,186,0.0,0.0,85,0.00,,,0.00,VWS V14.01,2013-03-30 07:52:00,
2013-03-30 03:57:00,23.0,19.2,30.10,South,186,0.0,0.0,85,0.00,,,0.00,VWS V14.01,2013-03-30 07:57:00,
2013-03-30 04:02:00,23.0,19.2,30.10,South,186,0.0,0.0,85,0.00,,,0.00,VWS V14.01,2013-03-30 08:02:00,
2013-03-30 04:07:00,22.8,19.3,30.10,South,186,0.0,0.0,86,0.00,,,0.00,VWS V14.01,2013-03-30 08:07:00,
2013-03-30 04:12:00,22.8,19.3,30.10,South,186,0.0,0.0,86,0.00,,,0.00,VWS V14.01,2013-03-30 08:12:00,
2013-03-30 04:17:00,22.8,19.3,30.10,South,186,0.0,0.0,86,0.00,,,0.00,VWS V14.01,2013-03-30 08:17:00,
2013-03-30 04:22:00,22.6,19.1,30.10,South,186,0.0,0.0,86,0.00,,,0.00,VWS V14.01,2013-03-30 08:22:00,
2013-03-30 04:27:00,22.6,19.1,30.10,South,186,0.0,0.0,86,0.00,,,0.00,VWS V14.01,2013-03-30 08:27:00,
2013-03-30 04:32:00,22.5,18.9,30.10,South,186,0.0,0.0,86,0.00,,,0.00,VWS V14.01,2013-03-30 08:32:00,
2013-03-30 04:37:00,22.5,18.9,30.10,South,186,0.0,0.0,86,0.00,,,0.00,VWS V14.01,2013-03-30 08:37:00,
2013-03-30 04:42:00,22.3,18.7,30.10,South,186,0.0,0.0,86,0.00,,CLR,0.00,VWS V14.01,2013-03-30 08:42:00,
2013-03-30 04:47:00,22.3,18.7,30.10,South,186,0.0,0.0,86,0.00,,CLR,0.00,VWS V14.01,2013-03-30 08:47:00,
2013-03-30 04:52:00,22.1,18.6,30.10,South,189,0.0,0.0,86,0.00,,SCT002,0.00,VWS V14.01,2013-03-30 08:52:00,
2013-03-30 04:57:00,21.9,18.4,30.10,South,189,0.0,0.0,86,0.00,,SCT002,0.00,VWS V14.01,2013-03-30 08:57:00,
2013-03-30 05:02:00,21.9,18.4,30.10,South,189,0.0,0.0,86,0.00,,SCT002,0.00,VWS V14.01,2013-03-30 09:02:00,
2013-03-30 05:07:00,21.9,18.6,30.10,South,189,0.0,0.0,87,0.00,,SCT002,0.00,VWS V14.01,2013-03-30 09:07:00,
2013-03-30 05:12:00,21.7,18.5,30.10,South,189,0.0,0.0,87,0.00,,SCT002,0.00,VWS V14.01,2013-03-30 09:12:00,
2013-03-30 05:17:00,21.7,18.5,30.10,South,189,0.0,0.0,87,0.00,,SCT002,0.00,VWS V14.01,2013-03-30 09:17:00,
2013-03-30 05:22:00,21.6,18.3,30.10,South,189,0.0,0.0,87,0.00,,SCT002,0.00,VWS V14.01,2013-03-30 09:22:00,
2013-03-30 05:27:00,21.6,18.3,30.10,South,189,0.0,0.0,87,0.00,,SCT002,0.00,VWS V14.01,2013-03-30 09:27:00,
2013-03-30 05:32:00,21.4,18.1,30.10,South,189,0.0,0.0,87,0.00,,SCT002,0.00,VWS V14.01,2013-03-30 09:32:00,
2013-03-30 05:34:00,21.4,18.1,30.10,South,189,0.0,0.0,87,0.00,,SCT002,0.00,VWS V14.01,2013-03-30 09:34:00,
2013-03-30 05:39:00,21.4,18.1,30.10,South,189,0.0,0.0,87,0.00,,SCT002,0.00,VWS V14.01,2013-03-30 09:39:00,
2013-03-30 05:44:00,21.2,17.9,30.10,South,189,0.0,0.0,87,0.00,,BKN002,0.00,VWS V14.01,2013-03-30 09:44:00,
2013-03-30 05:49:00,21.2,17.9,30.10,South,189,0.0,0.0,87,0.00,,BKN002,0.00,VWS V14.01,2013-03-30 09:49:00,
2013-03-30 05:54:00,21.2,17.9,30.10,South,189,0.0,0.0,87,0.00,,,0.00,VWS V14.01,2013-03-30 09:54:00,
2013-03-30 05:59:00,21.0,17.8,30.10,South,189,0.0,0.0,87,0.00,,,0.00,VWS V14.01,2013-03-30 09:59:00,
2013-03-30 06:04:00,21.0,17.8,30.10,South,189,0.0,0.0,87,0.00,,,0.00,VWS V14.01,2013-03-30 10:04:00,
2013-03-30 06:09:00,20.8,17.6,30.10,South,189,0.0,0.0,87,0.00,,,0.00,VWS V14.01,2013-03-30 10:09:00,
2013-03-30 06:14:00,20.8,17.6,30.10,South,189,0.0,0.0,87,0.00,,,0.00,VWS V14.01,2013-03-30 10:14:00,
2013-03-30 06:19:00,20.7,17.4,30.10,South,189,0.0,0.0,87,0.00,,,0.00,VWS V14.01,2013-03-30 10:19:00,
2013-03-30 06:24:00,20.5,17.2,30.10,South,189,0.0,0.0,87,0.00,,,0.00,VWS V14.01,2013-03-30 10:24:00,
2013-03-30 06:29:00,20.5,17.2,30.10,South,189,0.0,0.0,87,0.00,,,0.00,VWS V14.01,2013-03-30 10:29:00,
2013-03-30 06:34:00,20.3,17.3,30.10,South,189,0.0,0.0,88,0.00,,,0.00,VWS V14.01,2013-03-30 10:34:00,
2013-03-30 06:39:00,20.3,17.3,30.10,South,189,0.0,0.0,88,0.00,,,0.00,VWS V14.01,2013-03-30 10:39:00,
2013-03-30 06:44:00,20.3,17.3,30.10,South,189,0.0,0.0,88,0.00,,,0.00,VWS V14.01,2013-03-30 10:44:00,
2013-03-30 06:49:00,20.1,17.1,30.10,South,189,0.0,0.0,88,0.00,,,0.00,VWS V14.01,2013-03-30 10:49:00,
2013-03-30 06:54:00,20.1,17.1,30.10,South,189,0.0,0.0,88,0.00,,,0.00,VWS V14.01,2013-03-30 10:54:00,
2013-03-30 06:59:00,20.1,17.1,30.10,South,189,0.0,0.0,88,0.00,,,0.00,VWS V14.01,2013-03-30 10:59:00,
2013-03-30 07:04:00,19.9,17.0,30.10,South,189,0.0,0.0,88,0.00,,,0.00,VWS V14.01,2013-03-30 11:04:00,
2013-03-30 07:09:00,19.9,17.0,30.10,South,189,0.0,0.0,88,0.00,,,0.00,VWS V14.01,2013-03-30 11:09:00,
2013-03-30 07:14:00,19.9,17.0,30.10,South,189,0.0,0.0,88,0.00,,,0.00,VWS V14.01,2013-03-30 11:14:00,
2013-03-30 07:19:00,20.1,17.1,30.10,South,189,0.0,0.0,88,0.00,,,0.00,VWS V14.01,2013-03-30 11:19:00,
2013-03-30 07:24:00,20.1,17.1,30.10,South,189,0.0,0.0,88,0.00,,,0.00,VWS V14.01,2013-03-30 11:24:00,
2013-03-30 07:29:00,20.1,17.1,30.10,South,189,0.0,0.0,88,0.00,,,0.00,VWS V14.01,2013-03-30 11:29:00,
2013-03-30 07:34:00,20.3,17.3,30.10,South,189,0.0,0.0,88,0.00,,,0.00,VWS V14.01,2013-03-30 11:34:00,
2013-03-30 07:39:00,20.3,17.3,30.10,South,189,0.0,0.0,88,0.00,,,0.00,VWS V14.01,2013-03-30 11:39:00,
2013-03-30 07:44:00,20.7,17.9,30.10,South,189,0.0,0.0,89,0.00,,,0.00,VWS V14.01,2013-03-30 11:44:00,
2013-03-30 07:49:00,20.7,17.9,30.10,South,189,0.0,0.0,89,0.00,,,0.00,VWS V14.01,2013-03-30 11:49:00,
2013-03-30 07:54:00,21.2,18.5,30.10,South,189,0.0,0.0,89,0.00,,,0.00,VWS V14.01,2013-03-30 11:54:00,
2013-03-30 07:59:00,21.7,19.0,30.10,South,189,0.0,0.0,89,0.00,,,0.00,VWS V14.01,2013-03-30 11:59:00,
2013-03-30 08:04:00,22.1,19.4,30.10,South,189,0.0,0.0,89,0.00,,,0.00,VWS V14.01,2013-03-30 12:04:00,
2013-03-30 08:09:00,22.6,20.1,30.10,South,189,0.0,0.0,90,0.00,,,0.00,VWS V14.01,2013-03-30 12:09:00,
2013-03-30 08:14:00,22.6,20.1,30.10,South,189,0.0,0.0,90,0.00,,,0.00,VWS V14.01,2013-03-30 12:14:00,
2013-03-30 08:19:00,24.1,21.6,30.10,South,189,0.0,0.0,90,0.00,,,0.00,VWS V14.01,2013-03-30 12:19:00,
2013-03-30 08:24:00,24.8,22.3,30.10,South,189,0.0,0.0,90,0.00,,,0.00,VWS V14.01,2013-03-30 12:24:00,
2013-03-30 08:29:00,25.3,22.8,30.10,South,189,0.0,0.0,90,0.00,,,0.00,VWS V14.01,2013-03-30 12:29:00,
2013-03-30 08:34:00,26.1,23.5,30.10,South,189,0.0,0.0,90,0.00,,,0.00,VWS V14.01,2013-03-30 12:34:00,
2013-03-30 08:39:00,26.8,24.2,30.10,South,189,0.0,0.0,90,0.00,,,0.00,VWS V14.01,2013-03-30 12:39:00,
2013-03-30 08:45:00,28.0,25.8,30.10,South,189,0.0,0.0,91,0.00,,,0.00,VWS V14.01,2013-03-30 12:45:00,
2013-03-30 08:50:00,28.6,26.3,30.10,SSE,154,0.0,0.0,91,0.00,,,0.00,VWS V14.01,2013-03-30 12:50:00,
2013-03-30 08:55:00,28.9,26.6,30.10,SSE,165,0.0,0.0,91,0.00,,,0.00,VWS V14.01,2013-03-30 12:55:00,
2013-03-30 09:00:00,30.2,28.2,30.10,SSE,152,0.0,0.0,92,0.00,,,0.00,VWS V14.01,2013-03-30 13:00:00,
2013-03-30 09:05:00,30.7,28.4,30.10,SSE,167,0.0,0.0,91,0.00,,,0.00,VWS V14.01,2013-03-30 13:05:00,
2013-03-30 09:10:00,31.5,29.4,30.10,SSE,167,0.0,0.0,92,0.00,,,0.00,VWS V14.01,2013-03-30 13:10:00,
2013-03-30 09:15:00,31.8,29.8,30.10,SSE,160,0.0,0.0,92,0.00,,,0.00,VWS V14.01,2013-03-30 13:15:00,
2013-03-30 09:20:00,32.4,30.3,30.10,SSE,163,0.0,0.0,92,0.00,,,0.00,VWS V14.01,2013-03-30 13:20:00,
2013-03-30 09:25:00,32.5,30.5,30.10,SSE,164,0.0,0.0,92,0.00,,,0.00,VWS V14.01,2013-03-30 13:25:00,
2013-03-30 09:30:00,33.1,31.0,30.10,ESE,122,0.0,0.0,92,0.00,,,0.00,VWS V14.01,2013-03-30 13:30:00,
2013-03-30 09:35:00,33.4,31.4,30.13,South,172,0.0,0.0,92,0.00,,,0.00,VWS V14.01,2013-03-30 13:35:00,
2013-03-30 09:40:00,34.0,31.6,30.13,SSE,157,0.0,0.0,91,0.00,,,0.00,VWS V14.01,2013-03-30 13:40:00,
2013-03-30 09:45:00,34.0,31.6,30.13,NNE,29,0.0,0.0,91,0.00,,CLR,0.00,VWS V14.01,2013-03-30 13:45:00,
2013-03-30 09:50:00,34.7,31.8,30.13,South,180,0.0,5.4,89,0.00,,CLR,0.00,VWS V14.01,2013-03-30 13:50:00,
2013-03-30 09:55:00,35.2,30.9,30.13,North,349,3.6,3.6,84,0.00,,CLR,0.00,VWS V14.01,2013-03-30 13:55:00,
2013-03-30 10:00:00,36.1,29.6,30.13,SE,143,2.2,2.2,77,0.00,,CLR,0.00,VWS V14.01,2013-03-30 14:00:00,
2013-03-30 10:05:00,36.5,25.1,30.13,NNW,345,2.7,2.7,63,0.00,,CLR,0.00,VWS V14.01,2013-03-30 14:05:00,
2013-03-30 10:10:00,37.2,22.6,30.13,SSW,210,2.2,2.2,55,0.00,,CLR,0.00,VWS V14.01,2013-03-30 14:10:00,
2013-03-30 10:15:00,37.9,24.1,30.13,SSE,167,4.9,4.9,57,0.00,,CLR,0.00,VWS V14.01,2013-03-30 14:15:00,
2013-03-30 10:20:00,38.3,17.8,30.13,North,350,5.4,5.4,43,0.00,,CLR,0.00,VWS V14.01,2013-03-30 14:20:00,
2013-03-30 10:25:00,38.8,18.3,30.13,SW,231,4.0,5.4,43,0.00,,CLR,0.00,VWS V14.01,2013-03-30 14:25:00,
2013-03-30 10:30:00,39.2,17.5,30.13,WSW,242,2.7,2.7,41,0.00,,CLR,0.00,VWS V14.01,2013-03-30 14:30:00,
2013-03-30 10:35:00,40.3,16.7,30.13,SW,232,3.1,3.1,38,0.00,,CLR,0.00,VWS V14.01,2013-03-30 14:35:00,
2013-03-30 10:40:00,41.5,18.4,30.13,North,6,3.1,3.6,39,0.00,,CLR,0.00,VWS V14.01,2013-03-30 14:40:00,
2013-03-30 10:45:00,42.3,16.6,30.13,NNW,342,4.0,6.3,35,0.00,,CLR,0.00,VWS V14.01,2013-03-30 14:45:00,
2013-03-30 10:50:00,43.3,18.8,30.13,South,189,3.1,3.1,37,0.00,,CLR,0.00,VWS V14.01,2013-03-30 14:50:00,
2013-03-30 10:55:00,44.8,19.5,30.13,North,349,4.9,4.9,36,0.00,,CLR,0.00,VWS V14.01,2013-03-30 14:55:00,
2013-03-30 11:00:00,44.6,16.6,30.13,West,270,3.1,3.1,32,0.00,,CLR,0.00,VWS V14.01,2013-03-30 15:00:00,
2013-03-30 11:05:00,43.7,15.1,30.13,North,357,0.0,0.0,31,0.00,,CLR,0.00,VWS V14.01,2013-03-30 15:05:00,
2013-03-30 11:10:00,44.4,15.7,30.13,SW,221,5.4,8.1,31,0.00,,CLR,0.00,VWS V14.01,2013-03-30 15:10:00,
2013-03-30 11:15:00,45.3,15.7,30.13,SE,136,0.0,0.0,30,0.00,,CLR,0.00,VWS V14.01,2013-03-30 15:15:00,
2013-03-30 11:20:00,45.5,15.9,30.13,SE,141,0.0,3.1,30,0.00,,CLR,0.00,VWS V14.01,2013-03-30 15:20:00,
2013-03-30 11:25:00,46.0,16.4,30.13,NW,325,3.1,3.1,30,0.00,,CLR,0.00,VWS V14.01,2013-03-30 15:25:00,
2013-03-30 11:30:00,45.5,15.1,30.13,NNE,29,4.0,4.0,29,0.00,,CLR,0.00,VWS V14.01,2013-03-30 15:30:00,
2013-03-30 11:35:00,45.0,14.6,30.13,SSW,194,3.1,5.4,29,0.00,,CLR,0.00,VWS V14.01,2013-03-30 15:35:00,
2013-03-30 11:40:00,45.3,14.9,30.13,WSW,239,5.4,6.3,29,0.00,,CLR,0.00,VWS V14.01,2013-03-30 15:40:00,
2013-03-30 11:45:00,45.5,15.1,30.13,SSW,213,3.6,3.6,29,0.00,,CLR,0.00,VWS V14.01,2013-03-30 15:45:00,
2013-03-30 11:50:00,45.5,15.1,30.13,South,180,6.3,6.3,29,0.00,,CLR,0.00,VWS V14.01,2013-03-30 15:50:00,
2013-03-30 11:55:00,45.9,15.4,30.13,WNW,284,7.2,7.2,29,0.00,,CLR,0.00,VWS V14.01,2013-03-30 15:55:00,
2013-03-30 12:00:00,45.5,14.3,30.13,South,182,0.0,5.4,28,0.00,,CLR,0.00,VWS V14.01,2013-03-30 16:00:00,
2013-03-30 12:05:00,44.8,14.5,30.13,WSW,247,5.4,7.2,29,0.00,,CLR,0.00,VWS V14.01,2013-03-30 16:05:00,
2013-03-30 12:10:00,45.1,14.8,30.13,WNW,295,4.0,4.0,29,0.00,,CLR,0.00,VWS V14.01,2013-03-30 16:10:00,
2013-03-30 12:15:00,45.3,14.9,30.13,South,183,0.0,0.0,29,0.00,,CLR,0.00,VWS V14.01,2013-03-30 16:15:00,
2013-03-30 12:20:00,45.9,15.4,30.13,NNW,336,3.1,3.1,29,0.00,,CLR,0.00,VWS V14.01,2013-03-30 16:20:00,
2013-03-30 12:25:00,46.2,15.7,30.13,South,185,5.4,5.8,29,0.00,,CLR,0.00,VWS V14.01,2013-03-30 16:25:00,
2013-03-30 12:30:00,46.2,14.9,30.13,WNW,297,4.0,7.6,28,0.00,,CLR,0.00,VWS V14.01,2013-03-30 16:30:00,
2013-03-30 12:35:00,46.0,14.8,30.13,WSW,244,0.0,0.0,28,0.00,,CLR,0.00,VWS V14.01,2013-03-30 16:35:00,
2013-03-30 12:40:00,45.9,14.6,30.13,SE,140,4.9,6.3,28,0.00,,CLR,0.00,VWS V14.01,2013-03-30 16:40:00,
2013-03-30 12:46:00,45.9,14.6,30.13,SW,233,6.7,6.7,28,0.00,,CLR,0.00,VWS V14.01,2013-03-30 16:46:00,
2013-03-30 12:51:00,45.5,14.3,30.13,NW,322,4.0,4.0,28,0.00,,CLR,0.00,VWS V14.01,2013-03-30 16:51:00,
2013-03-30 12:56:00,45.3,14.1,30.13,WSW,246,2.7,4.0,28,0.00,,CLR,0.00,VWS V14.01,2013-03-30 16:56:00,
2013-03-30 13:01:00,45.7,14.5,30.13,SSE,153,0.0,3.6,28,0.00,,CLR,0.00,VWS V14.01,2013-03-30 17:01:00,
2013-03-30 13:06:00,46.0,14.8,30.13,SE,129,3.1,4.0,28,0.00,,CLR,0.00,VWS V14.01,2013-03-30 17:06:00,
2013-03-30 13:11:00,46.8,15.4,30.13,SW,234,8.7,8.7,28,0.00,,CLR,0.00,VWS V14.01,2013-03-30 17:11:00,
2013-03-30 13:16:00,46.4,14.2,30.13,North,353,4.0,4.0,27,0.00,,CLR,0.00,VWS V14.01,2013-03-30 17:16:00,
2013-03-30 13:21:00,46.0,14.8,30.13,East,97,2.2,4.0,28,0.00,,CLR,0.00,VWS V14.01,2013-03-30 17:21:00,
2013-03-30 13:27:00,45.5,14.3,30.13,South,172,3.6,3.6,28,0.00,,CLR,0.00,VWS V14.01,2013-03-30 17:27:00,
2013-03-30 13:32:00,44.8,13.7,30.13,SW,227,2.7,4.0,28,0.00,,CLR,0.00,VWS V14.01,2013-03-30 17:32:00,
2013-03-30 13:37:00,45.1,14.0,30.13,SSW,207,3.1,4.9,28,0.00,,CLR,0.00,VWS V14.01,2013-03-30 17:37:00,
2013-03-30 13:42:00,45.1,14.0,30.13,NW,318,7.6,7.6,28,0.00,,CLR,0.00,VWS V14.01,2013-03-30 17:42:00,
2013-03-30 13:47:00,45.1,14.0,30.13,SW,229,3.1,5.4,28,0.00,,CLR,0.00,VWS V14.01,2013-03-30 17:47:00,
2013-03-30 13:52:00,45.9,14.6,30.13,South,181,2.7,3.6,28,0.00,,CLR,0.00,VWS V14.01,2013-03-30 17:52:00,
2013-03-30 13:57:00,46.0,14.8,30.13,South,170,5.8,5.8,28,0.00,,CLR,0.00,VWS V14.01,2013-03-30 17:57:00,
2013-03-30 14:02:00,46.6,14.4,30.13,SSE,164,2.7,5.8,27,0.00,,CLR,0.00,VWS V14.01,2013-03-30 18:02:00,
2013-03-30 14:07:00,46.6,14.4,30.13,WSW,253,0.0,0.0,27,0.00,,CLR,0.00,VWS V14.01,2013-03-30 18:07:00,
2013-03-30 14:12:00,46.4,14.2,30.13,NW,322,4.0,4.0,27,0.00,,CLR,0.00,VWS V14.01,2013-03-30 18:12:00,
2013-03-30 14:17:00,46.2,14.9,30.13,WNW,294,3.1,4.9,28,0.00,,CLR,0.00,VWS V14.01,2013-03-30 18:17:00,
2013-03-30 14:22:00,46.6,14.4,30.13,South,171,5.8,5.8,27,0.00,,CLR,0.00,VWS V14.01,2013-03-30 18:22:00,
2013-03-30 14:27:00,46.6,14.4,30.10,WNW,303,4.0,5.8,27,0.00,,CLR,0.00,VWS V14.01,2013-03-30 18:27:00,
2013-03-30 14:32:00,47.5,15.2,30.10,NW,304,0.0,0.0,27,0.00,,CLR,0.00,VWS V14.01,2013-03-30 18:32:00,
2013-03-30 14:37:00,46.2,14.9,30.10,NNW,338,0.0,0.0,28,0.00,,CLR,0.00,VWS V14.01,2013-03-30 18:37:00,
2013-03-30 14:42:00,46.2,14.9,30.10,South,178,4.0,4.0,28,0.00,,CLR,0.00,VWS V14.01,2013-03-30 18:42:00,
2013-03-30 14:47:00,46.6,14.4,30.10,West,277,3.6,5.8,27,0.00,,CLR,0.00,VWS V14.01,2013-03-30 18:47:00,
2013-03-30 14:52:00,46.6,14.4,30.10,WSW,256,5.4,5.4,27,0.00,,CLR,0.00,VWS V14.01,2013-03-30 18:52:00,
2013-03-30 14:57:00,46.2,14.9,30.10,NNW,333,2.2,2.7,28,0.00,,CLR,0.00,VWS V14.01,2013-03-30 18:57:00,
2013-03-30 15:02:00,45.9,14.6,30.07,SW,230,8.1,8.1,28,0.00,,CLR,0.00,VWS V14.01,2013-03-30 19:02:00,
2013-03-30 15:08:00,46.0,14.8,30.07,South,190,5.4,5.4,28,0.00,,CLR,0.00,VWS V14.01,2013-03-30 19:08:00,
2013-03-30 15:13:00,46.0,14.8,30.07,WNW,293,0.0,5.8,28,0.00,,CLR,0.00,VWS V14.01,2013-03-30 19:13:00,
2013-03-30 15:18:00,46.0,14.8,30.07,NNW,329,3.6,4.9,28,0.00,,CLR,0.00,VWS V14.01,2013-03-30 19:18:00,
2013-03-30 15:23:00,45.7,14.5,30.07,WNW,303,4.0,5.4,28,0.00,,CLR,0.00,VWS V14.01,2013-03-30 19:23:00,
2013-03-30 15:28:00,46.0,14.8,30.07,SSW,207,3.6,3.6,28,0.00,,CLR,0.00,VWS V14.01,2013-03-30 19:28:00,
2013-03-30 15:33:00,46.8,14.6,30.07,South,184,3.6,4.0,27,0.00,,CLR,0.00,VWS V14.01,2013-03-30 19:33:00,
2013-03-30 15:38:00,46.8,14.6,30.07,SSE,161,2.2,4.0,27,0.00,,CLR,0.00,VWS V14.01,2013-03-30 19:38:00,
2013-03-30 15:43:00,46.6,14.4,30.07,WSW,243,3.1,3.1,27,0.00,,CLR,0.00,VWS V14.01,2013-03-30 19:43:00,
2013-03-30 15:48:00,46.9,14.7,30.07,SW,230,4.9,4.9,27,0.00,,CLR,0.00,VWS V14.01,2013-03-30 19:48:00,
2013-03-30 15:53:00,46.8,14.6,30.07,West,260,0.0,0.0,27,0.00,,CLR,0.00,VWS V14.01,2013-03-30 19:53:00,
2013-03-30 15:58:00,46.6,14.4,30.07,NNW,335,6.3,6.3,27,0.00,,CLR,0.00,VWS V14.01,2013-03-30 19:58:00,
2013-03-30 16:03:00,46.6,14.4,30.07,NW,312,3.6,5.4,27,0.00,,CLR,0.00,VWS V14.01,2013-03-30 20:03:00,
2013-03-30 16:08:00,45.9,14.6,30.07,SSW,193,3.6,3.6,28,0.00,,CLR,0.00,VWS V14.01,2013-03-30 20:08:00,
2013-03-30 16:13:00,45.3,14.1,30.07,NNW,337,0.0,5.4,28,0.00,,CLR,0.00,VWS V14.01,2013-03-30 20:13:00,
2013-03-30 16:18:00,45.0,13.8,30.07,WNW,289,3.1,5.8,28,0.00,,CLR,0.00,VWS V14.01,2013-03-30 20:18:00,
2013-03-30 16:23:00,44.6,13.5,30.07,SSE,167,0.0,6.7,28,0.00,,CLR,0.00,VWS V14.01,2013-03-30 20:23:00,
2013-03-30 16:28:00,44.2,13.2,30.07,NNW,345,5.8,5.8,28,0.00,,CLR,0.00,VWS V14.01,2013-03-30 20:28:00,
2013-03-30 16:33:00,44.1,13.1,30.07,SSE,162,3.6,3.6,28,0.00,,CLR,0.00,VWS V14.01,2013-03-30 20:33:00,
2013-03-30 16:38:00,44.2,13.2,30.07,NNE,12,3.1,8.3,28,0.00,,CLR,0.00,VWS V14.01,2013-03-30 20:38:00,
2013-03-30 16:43:00,44.1,13.1,30.07,SSE,168,0.0,0.0,28,0.00,,CLR,0.00,VWS V14.01,2013-03-30 20:43:00,
2013-03-30 16:48:00,44.1,13.1,30.07,SSE,168,5.8,5.8,28,0.00,,CLR,0.00,VWS V14.01,2013-03-30 20:48:00,
2013-03-30 16:53:00,44.2,13.2,30.07,SW,221,4.0,5.8,28,0.00,,CLR,0.00,VWS V14.01,2013-03-30 20:53:00,
2013-03-30 16:58:00,44.4,13.4,30.07,SW,231,2.7,2.7,28,0.00,,CLR,0.00,VWS V14.01,2013-03-30 20:58:00,
2013-03-30 17:03:00,44.2,13.2,30.07,SE,128,2.7,2.7,28,0.00,,CLR,0.00,VWS V14.01,2013-03-30 21:03:00,
2013-03-30 17:08:00,44.2,13.2,30.07,North,7,5.8,5.8,28,0.00,,CLR,0.00,VWS V14.01,2013-03-30 21:08:00,
2013-03-30 17:13:00,43.9,12.9,30.07,WSW,241,2.7,2.7,28,0.00,,CLR,0.00,VWS V14.01,2013-03-30 21:13:00,
2013-03-30 17:18:00,44.1,13.1,30.07,NW,313,0.0,0.0,28,0.00,,CLR,0.00,VWS V14.01,2013-03-30 21:18:00,
2013-03-30 17:23:00,44.2,13.2,30.07,SSW,193,0.0,0.0,28,0.00,,CLR,0.00,VWS V14.01,2013-03-30 21:23:00,
2013-03-30 17:28:00,44.4,13.4,30.07,NNW,328,3.1,4.0,28,0.00,,CLR,0.00,VWS V14.01,2013-03-30 21:28:00,
2013-03-30 17:33:00,44.2,13.2,30.07,SW,224,0.0,0.0,28,0.00,,CLR,0.00,VWS V14.01,2013-03-30 21:33:00,
2013-03-30 17:38:00,44.1,13.1,30.07,NNE,29,5.4,5.4,28,0.00,,CLR,0.00,VWS V14.01,2013-03-30 21:38:00,
2013-03-30 17:43:00,44.2,13.2,30.07,SW,222,0.0,2.2,28,0.00,,CLR,0.00,VWS V14.01,2013-03-30 21:43:00,
2013-03-30 17:48:00,44.2,13.2,30.07,NW,306,2.2,2.2,28,0.00,,CLR,0.00,VWS V14.01,2013-03-30 21:48:00,
2013-03-30 17:53:00,44.1,13.1,30.07,SW,229,0.0,4.0,28,0.00,,CLR,0.00,VWS V14.01,2013-03-30 21:53:00,
2013-03-30 17:58:00,44.1,13.1,30.07,WSW,248,2.7,2.7,28,0.00,,CLR,0.00,VWS V14.01,2013-03-30 21:58:00,
2013-03-30 18:03:00,43.9,12.9,30.07,SSW,208,2.7,4.5,28,0.00,,CLR,0.00,VWS V14.01,2013-03-30 22:03:00,
2013-03-30 18:08:00,43.7,12.8,30.07,NNW,340,4.9,4.9,28,0.00,,CLR,0.00,VWS V14.01,2013-03-30 22:08:00,
2013-03-30 18:13:00,43.5,12.6,30.07,SSE,157,0.0,3.1,28,0.00,,CLR,0.00,VWS V14.01,2013-03-30 22:13:00,
2013-03-30 18:18:00,43.3,12.4,30.07,WSW,243,0.0,0.0,28,0.00,,CLR,0.00,VWS V14.01,2013-03-30 22:18:00,
2013-03-30 18:23:00,43.2,12.3,30.07,WSW,243,0.0,0.0,28,0.00,,CLR,0.00,VWS V14.01,2013-03-30 22:23:00,
2013-03-30 18:28:00,42.8,12.0,30.07,WSW,246,0.0,0.0,28,0.00,,CLR,0.00,VWS V14.01,2013-03-30 22:28:00,
2013-03-30 18:33:00,42.6,12.6,30.07,NNW,335,2.7,3.1,29,0.00,,CLR,0.00,VWS V14.01,2013-03-30 22:33:00,
2013-03-30 18:38:00,42.6,12.6,30.07,WNW,303,0.0,0.0,29,0.00,,CLR,0.00,VWS V14.01,2013-03-30 22:38:00,
2013-03-30 18:44:00,42.3,12.3,30.07,WNW,288,3.6,3.6,29,0.00,,CLR,0.00,VWS V14.01,2013-03-30 22:44:00,
2013-03-30 18:49:00,42.3,12.3,30.07,SW,232,0.0,0.0,29,0.00,,CLR,0.00,VWS V14.01,2013-03-30 22:49:00,
2013-03-30 18:54:00,42.3,12.3,30.07,North,353,0.0,0.0,29,0.00,,CLR,0.00,VWS V14.01,2013-03-30 22:54:00,
2013-03-30 18:59:00,41.9,12.0,30.07,NW,314,0.0,0.0,29,0.00,,CLR,0.00,VWS V14.01,2013-03-30 22:59:00,
2013-03-30 19:04:00,41.5,11.7,30.07,NW,307,0.0,0.0,29,0.00,,CLR,0.00,VWS V14.01,2013-03-30 23:04:00,
2013-03-30 19:09:00,40.6,10.9,30.07,WNW,291,0.0,0.0,29,0.00,,CLR,0.00,VWS V14.01,2013-03-30 23:09:00,
2013-03-30 19:14:00,39.9,10.2,30.07,NNW,330,0.0,0.0,29,0.00,,CLR,0.00,VWS V14.01,2013-03-30 23:14:00,
2013-03-30 19:19:00,39.2,10.4,30.07,NNW,330,0.0,0.0,30,0.00,,CLR,0.00,VWS V14.01,2013-03-30 23:19:00,
2013-03-30 19:24:00,38.1,9.4,30.07,NNW,330,0.0,0.0,30,0.00,,CLR,0.00,VWS V14.01,2013-03-30 23:24:00,
2013-03-30 19:29:00,37.6,9.0,30.07,NNW,330,0.0,0.0,30,0.00,,CLR,0.00,VWS V14.01,2013-03-30 23:29:00,
2013-03-30 19:34:00,36.5,8.8,30.07,NNW,330,0.0,0.0,31,0.00,,CLR,0.00,VWS V14.01,2013-03-30 23:34:00,
2013-03-30 19:39:00,36.0,9.0,30.07,NW,315,0.0,0.0,32,0.00,,CLR,0.00,VWS V14.01,2013-03-30 23:39:00,
2013-03-30 19:44:00,35.6,9.4,30.07,NW,315,0.0,0.0,33,0.00,,CLR,0.00,VWS V14.01,2013-03-30 23:44:00,
2013-03-30 19:49:00,35.1,9.5,30.07,NW,315,0.0,0.0,34,0.00,,CLR,0.00,VWS V14.01,2013-03-30 23:49:00,
2013-03-30 19:54:00,34.7,9.9,30.07,NW,322,0.0,0.0,35,0.00,,CLR,0.00,VWS V14.01,2013-03-30 23:54:00,
2013-03-30 19:59:00,34.2,10.0,30.10,NW,322,0.0,0.0,36,0.00,,CLR,0.00,VWS V14.01,2013-03-30 23:59:00,
2013-03-30 20:04:00,33.6,10.1,100.00,NW,322,0.0,0.0,37,0.00,,CLR,0.00,VWS V14.01,2013-03-31 00:04:00,
2013-03-30 20:09:00,33.1,10.8,100.00,NNW,341,0.0,0.0,39,0.00,,CLR,0.00,VWS V14.01,2013-03-31 00:09:00,
2013-03-30 20:14:00,32.9,11.2,30.10,NNW,340,0.0,0.0,40,0.00,,CLR,0.00,VWS V14.01,2013-03-31 00:14:00,
2013-03-30 20:19:00,32.5,10.9,30.10,NNW,340,0.0,0.0,40,0.00,,CLR,0.00,VWS V14.01,2013-03-31 00:19:00,
2013-03-30 20:24:00,32.2,10.6,30.10,NNW,343,0.0,0.0,40,0.00,,CLR,0.00,VWS V14.01,2013-03-31 00:24:00,
2013-03-30 20:29:00,31.8,10.8,30.10,NNW,344,0.0,0.0,41,0.00,,CLR,0.00,VWS V14.01,2013-03-31 00:29:00,
2013-03-30 20:34:00,31.5,10.5,30.10,North,350,0.0,0.0,41,0.00,,CLR,0.00,VWS V14.01,2013-03-31 00:34:00,
2013-03-30 20:39:00,31.1,10.7,30.10,North,353,0.0,0.0,42,0.00,,CLR,0.00,VWS V14.01,2013-03-31 00:39:00,
2013-03-30 20:44:00,31.1,10.7,30.10,North,353,0.0,0.0,42,0.00,,CLR,0.00,VWS V14.01,2013-03-31 00:44:00,
2013-03-30 20:49:00,30.7,10.9,30.10,North,353,0.0,0.0,43,0.00,,CLR,0.00,VWS V14.01,2013-03-31 00:49:00,
2013-03-30 20:54:00,30.4,10.6,30.10,North,353,0.0,0.0,43,0.00,,CLR,0.00,VWS V14.01,2013-03-31 00:54:00,
2013-03-30 20:59:00,30.2,10.4,30.10,North,353,0.0,0.0,43,0.00,,CLR,0.00,VWS V14.01,2013-03-31 00:59:00,
2013-03-30 21:04:00,30.0,10.8,30.10,North,353,0.0,0.0,44,0.00,,CLR,0.00,VWS V14.01,2013-03-31 01:04:00,
2013-03-30 21:09:00,29.8,10.6,30.10,North,353,0.0,0.0,44,0.00,,CLR,0.00,VWS V14.01,2013-03-31 01:09:00,
2013-03-30 21:14:00,29.5,10.8,30.10,North,353,0.0,0.0,45,0.00,,CLR,0.00,VWS V14.01,2013-03-31 01:14:00,
2013-03-30 21:19:00,29.3,11.1,30.10,North,350,0.0,0.0,46,0.00,,CLR,0.00,VWS V14.01,2013-03-31 01:19:00,
2013-03-30 21:24:00,28.9,10.8,30.10,North,353,0.0,0.0,46,0.00,,CLR,0.00,VWS V14.01,2013-03-31 01:24:00,
2013-03-30 21:29:00,28.8,11.1,30.10,North,353,0.0,0.0,47,0.00,,CLR,0.00,VWS V14.01,2013-03-31 01:29:00,
2013-03-30 21:34:00,28.6,10.9,30.10,North,353,0.0,0.0,47,0.00,,CLR,0.00,VWS V14.01,2013-03-31 01:34:00,
2013-03-30 21:39:00,28.6,11.4,30.10,North,353,0.0,0.0,48,0.00,,CLR,0.00,VWS V14.01,2013-03-31 01:39:00,
2013-03-30 21:44:00,28.4,11.2,30.10,North,353,0.0,0.0,48,0.00,,CLR,0.00,VWS V14.01,2013-03-31 01:44:00,
2013-03-30 21:49:00,28.2,11.5,30.10,North,353,0.0,0.0,49,0.00,,CLR,0.00,VWS V14.01,2013-03-31 01:49:00,
2013-03-30 21:54:00,28.0,11.8,30.10,North,353,0.0,0.0,50,0.00,,CLR,0.00,VWS V14.01,2013-03-31 01:54:00,
2013-03-30 21:59:00,27.9,12.1,30.10,North,353,0.0,0.0,51,0.00,,CLR,0.00,VWS V14.01,2013-03-31 01:59:00,
2013-03-30 22:04:00,27.9,12.1,30.10,North,353,0.0,0.0,51,0.00,,CLR,0.00,VWS V14.01,2013-03-31 02:04:00,
2013-03-30 22:09:00,27.9,12.1,30.10,North,353,0.0,0.0,51,0.00,,CLR,0.00,VWS V14.01,2013-03-31 02:09:00,
2013-03-30 22:14:00,27.5,12.2,30.10,North,353,0.0,0.0,52,0.00,,CLR,0.00,VWS V14.01,2013-03-31 02:14:00,
2013-03-30 22:19:00,27.5,12.2,30.10,North,353,0.0,0.0,52,0.00,,CLR,0.00,VWS V14.01,2013-03-31 02:19:00,
2013-03-30 22:24:00,27.3,12.0,30.10,North,353,0.0,0.0,52,0.00,,CLR,0.00,VWS V14.01,2013-03-31 02:24:00,
2013-03-30 22:29:00,27.1,11.9,30.10,North,353,0.0,0.0,52,0.00,,CLR,0.00,VWS V14.01,2013-03-31 02:29:00,
2013-03-30 22:34:00,27.0,11.7,30.10,North,353,0.0,0.0,52,0.00,,CLR,0.00,VWS V14.01,2013-03-31 02:34:00,
2013-03-30 22:39:00,27.0,12.1,30.10,North,353,0.0,0.0,53,0.00,,CLR,0.00,VWS V14.01,2013-03-31 02:39:00,
2013-03-30 22:44:00,26.8,12.0,30.10,North,353,0.0,0.0,53,0.00,,CLR,0.00,VWS V14.01,2013-03-31 02:44:00,
2013-03-30 22:49:00,26.6,12.2,30.10,North,353,0.0,0.0,54,0.00,,CLR,0.00,VWS V14.01,2013-03-31 02:49:00,
2013-03-30 22:54:00,26.4,12.5,30.10,North,353,0.0,0.0,55,0.00,,CLR,0.00,VWS V14.01,2013-03-31 02:54:00,
2013-03-30 22:59:00,26.4,12.5,30.10,North,353,0.0,0.0,55,0.00,,CLR,0.00,VWS V14.01,2013-03-31 02:59:00,
2013-03-30 23:05:00,26.2,12.7,30.10,North,353,0.0,0.0,56,0.00,,CLR,0.00,VWS V14.01,2013-03-31 03:05:00,
2013-03-30 23:10:00,26.2,12.7,30.10,North,353,0.0,0.0,56,0.00,,CLR,0.00,VWS V14.01,2013-03-31 03:10:00,
2013-03-30 23:15:00,26.1,12.5,30.10,North,353,0.0,0.0,56,0.00,,CLR,0.00,VWS V14.01,2013-03-31 03:15:00,
2013-03-30 23:20:00,26.1,12.5,30.10,North,353,0.0,0.0,56,0.00,,CLR,0.00,VWS V14.01,2013-03-31 03:20:00,
2013-03-30 23:25:00,25.9,12.4,30.10,North,353,0.0,0.0,56,0.00,,CLR,0.00,VWS V14.01,2013-03-31 03:25:00,
2013-03-30 23:30:00,25.7,12.2,30.10,North,353,0.0,0.0,56,0.00,,CLR,0.00,VWS V14.01,2013-03-31 03:30:00,
2013-03-30 23:35:00,25.5,12.0,30.10,North,353,0.0,0.0,56,0.00,,CLR,0.00,VWS V14.01,2013-03-31 03:35:00,
2013-03-30 23:40:00,25.3,12.2,30.10,North,353,0.0,0.0,57,0.00,,CLR,0.00,VWS V14.01,2013-03-31 03:40:00,
2013-03-30 23:45:00,25.3,12.2,30.10,North,353,0.0,0.0,57,0.00,,CLR,0.00,VWS V14.01,2013-03-31 03:45:00,
2013-03-30 23:50:00,25.3,12.6,30.10,North,353,0.0,0.0,58,0.00,,CLR,0.00,VWS V14.01,2013-03-31 03:50:00,
2013-03-30 23:55:00,25.2,12.5,30.10,North,353,0.0,0.0,58,0.00,,CLR,0.00,VWS V14.01,2013-03-31 03:55:00,